TimeMDT,TemperatureF,Dew PointF,Humidity,Sea Level PressureIn,VisibilityMPH,Wind Direction,Wind SpeedMPH,Gust SpeedMPH,PrecipitationIn,Events,Conditions,WindDirDegrees,DateUTC
12:53 AM,27.0,17.1,66,29.92,10.0,North,4.6,-,N/A,,Clear,350,2014-03-14 06:53:00
1:53 AM,24.1,16.0,71,29.96,10.0,SSE,4.6,-,N/A,,Clear,150,2014-03-14 07:53:00
2:53 AM,23.0,16.0,74,29.96,10.0,SE,6.9,-,N/A,,Clear,140,2014-03-14 08:53:00
3:53 AM,23.0,15.1,72,29.94,10.0,SW,8.1,-,N/A,,Clear,220,2014-03-14 09:53:00
4:53 AM,21.0,14.0,74,29.98,10.0,West,8.1,-,N/A,,Clear,260,2014-03-14 10:53:00
5:53 AM,21.0,12.9,71,30.00,10.0,Calm,Calm,-,N/A,,Clear,0,2014-03-14 11:53:00
6:53 AM,19.0,12.0,74,30.02,10.0,South,6.9,-,N/A,,Clear,170,2014-03-14 12:53:00
7:53 AM,23.0,14.0,68,30.02,10.0,SW,8.1,-,N/A,,Clear,220,2014-03-14 13:53:00
8:53 AM,30.9,16.0,54,29.98,10.0,SSW,16.1,-,N/A,,Clear,210,2014-03-14 14:53:00
9:53 AM,39.0,10.0,30,29.94,10.0,SW,23.0,-,N/A,,Clear,230,2014-03-14 15:53:00
10:53 AM,42.1,10.0,27,29.93,10.0,SW,15.0,-,N/A,,Clear,230,2014-03-14 16:53:00
11:53 AM,44.1,3.0,18,29.95,10.0,West,10.4,-,N/A,,Clear,270,2014-03-14 17:53:00
12:53 PM,46.0,3.0,17,29.92,10.0,West,10.4,20.7,N/A,,Clear,260,2014-03-14 18:53:00
1:53 PM,48.9,3.0,15,29.89,10.0,WSW,17.3,26.5,N/A,,Clear,240,2014-03-14 19:53:00
2:53 PM,50.0,6.1,17,29.87,10.0,WSW,17.3,-,N/A,,Clear,250,2014-03-14 20:53:00
3:53 PM,50.0,1.9,14,29.85,10.0,WSW,21.9,-,N/A,,Clear,240,2014-03-14 21:53:00
4:53 PM,48.0,6.1,18,29.88,10.0,WSW,17.3,-,N/A,,Clear,250,2014-03-14 22:53:00
5:53 PM,44.1,10.9,26,29.89,10.0,SW,19.6,-,N/A,,Clear,230,2014-03-14 23:53:00
6:53 PM,41.0,12.0,31,29.94,10.0,WSW,15.0,-,N/A,,Clear,240,2014-03-15 00:53:00
7:53 PM,36.0,10.0,34,29.95,10.0,West,4.6,-,N/A,,Clear,260,2014-03-15 01:53:00
8:53 PM,32.0,15.1,50,29.92,10.0,WSW,11.5,-,N/A,,Clear,250,2014-03-15 02:53:00
9:53 PM,30.9,15.1,52,29.88,10.0,WSW,12.7,-,N/A,,Clear,250,2014-03-15 03:53:00
10:53 PM,33.1,15.1,48,29.84,10.0,WSW,13.8,-,N/A,,Clear,250,2014-03-15 04:53:00
11:53 PM,33.1,17.1,52,29.82,10.0,West,16.1,-,N/A,,Scattered Clouds,270,2014-03-15 05:53:00